Olivia, MN

8:43 AM CDT on August 16, 2017 (GMT -0500)
Olivia Regional

Weather History for KOVL - February, 2013

Change the Weather History Date:

Tuesday, February 12, 2013

  Actual Average (KRWF) Record (KRWF)
Temperature  
Mean Temperature 24 °F -  
Max Temperature 32 °F 26 °F 59 °F (1990)
Min Temperature 15 °F 7 °F -23 °F (1955)
Degree Days  
Heating Degree Days 42    
Moisture  
Dew Point 17 °F    
Average Humidity 81    
Maximum Humidity 86    
Minimum Humidity 69    
Precipitation  
Precipitation 0.00 in - - ()
Sea Level Pressure  
Sea Level Pressure 29.89 in    
Wind  
Wind Speed 8 mph (SW)    
Max Wind Speed 13 mph    
Max Gust Speed 16 mph    
Visibility 10 miles    
Events Snow    
Averages and records for this station are not official NWS values.
T = Trace of Precipitation, MM = Missing Value Source: NWS Daily Summary

Daily Weather History Graph

Daily Weather History Graph

Search for Another Location

Airport or City:

Trip Planner

Search our weather history database for the weather conditions in past years. The results will help you decide how hot, cold, wet, or windy it might be!

Date:

Astronomy

Feb. 12, 2013 Rise Set
Actual Time 7:24 AM CST 5:44 PM CST
Civil Twilight 6:54 AM CST 6:14 PM CST
Nautical Twilight 6:20 AM CST 6:49 PM CST
Astronomical Twilight 5:46 AM CST 7:23 PM CST
Moon 8:13 AM CST (2/12) 8:56 PM CST (2/12)
Length of Visible Light 11h 20m
Length of Day
10h 20m
Waxing Crescent, 7% of the Moon is Illuminated
Feb 12
Waxing Crescent
Feb 17
First Quarter
Feb 25
Full
Mar 4
Last Quarter
Mar 11
New

Hourly Weather History & Observations

Time (CST) Temp. Windchill Dew Point Humidity Pressure Visibility Wind Dir Wind Speed Gust Speed Precip Events Conditions
12:11 AM 17.6 °F 10.7 °F 12.2 °F 79% 30.03 in 10.0 mi WNW 4.6 mph - N/A Snow Light Snow
12:31 AM 17.6 °F 12.3 °F 14.0 °F 86% 30.03 in 10.0 mi West 3.5 mph - N/A   Overcast
12:51 AM 19.4 °F 12.8 °F 14.0 °F 80% 30.03 in 10.0 mi WSW 4.6 mph - N/A   Overcast
1:11 AM 19.4 °F 10.4 °F 14.0 °F 80% 30.02 in 10.0 mi SW 6.9 mph - N/A   Overcast
1:30 AM 19.4 °F 10.4 °F 15.8 °F 86% 30.01 in 10.0 mi SSW 6.9 mph - N/A   Overcast
1:51 AM 21.2 °F 13.6 °F 17.6 °F 86% 30.01 in 10.0 mi SSW 5.8 mph - N/A   Overcast
2:11 AM 21.2 °F 13.6 °F 17.6 °F 86% 30.00 in 10.0 mi South 5.8 mph - N/A   Overcast
2:31 AM 21.2 °F 11.7 °F 17.6 °F 86% 30.01 in 10.0 mi SSW 8.1 mph - N/A   Overcast
2:50 AM 21.2 °F 10.9 °F 17.6 °F 86% 30.00 in 10.0 mi SSW 9.2 mph - N/A   Overcast
3:11 AM 21.2 °F 11.7 °F 17.6 °F 86% 29.99 in 10.0 mi South 8.1 mph - N/A   Mostly Cloudy
3:31 AM 17.6 °F 8.2 °F 14.0 °F 86% 29.99 in 10.0 mi South 6.9 mph - N/A   Clear
3:51 AM 17.6 °F 7.3 °F 14.0 °F 86% 29.97 in 10.0 mi South 8.1 mph - N/A   Clear
4:11 AM 17.6 °F 7.3 °F 14.0 °F 86% 29.96 in 10.0 mi South 8.1 mph - N/A   Clear
4:31 AM 17.6 °F 6.4 °F 12.2 °F 79% 29.95 in 10.0 mi South 9.2 mph - N/A   Clear
4:51 AM 15.8 °F 5.1 °F 12.2 °F 86% 29.95 in 10.0 mi South 8.1 mph - N/A   Clear
5:10 AM 15.8 °F 6.1 °F 12.2 °F 86% 29.94 in 10.0 mi SSE 6.9 mph - N/A   Clear
5:31 AM 15.8 °F 6.1 °F 12.2 °F 86% 29.93 in 10.0 mi SSE 6.9 mph - N/A   Clear
5:51 AM 15.8 °F 5.1 °F 12.2 °F 86% 29.93 in 10.0 mi SSE 8.1 mph - N/A   Clear
6:11 AM 15.8 °F 5.1 °F 12.2 °F 86% 29.93 in 7.0 mi SSE 8.1 mph - N/A   Clear
6:31 AM 15.8 °F 5.1 °F 12.2 °F 86% 29.92 in 10.0 mi SSE 8.1 mph - N/A   Clear
6:51 AM 15.8 °F 5.1 °F 12.2 °F 86% 29.91 in 10.0 mi South 8.1 mph - N/A   Clear
7:11 AM 17.6 °F 7.3 °F 14.0 °F 86% 29.91 in 10.0 mi South 8.1 mph - N/A   Clear
7:31 AM 17.6 °F 5.0 °F 14.0 °F 86% 29.90 in 10.0 mi South 11.5 mph - N/A   Clear
7:51 AM 19.4 °F 7.9 °F 15.8 °F 86% 29.90 in 10.0 mi South 10.4 mph 16.1 mph N/A   Clear
8:11 AM 19.4 °F 9.5 °F 15.8 °F 86% 29.90 in 10.0 mi South 8.1 mph - N/A   Clear
8:31 AM 21.2 °F 11.7 °F 17.6 °F 86% 29.90 in 10.0 mi South 8.1 mph - N/A   Clear
8:51 AM 21.2 °F 10.9 °F 15.8 °F 80% 29.89 in 10.0 mi South 9.2 mph - N/A   Clear
9:10 AM 21.2 °F 10.1 °F 17.6 °F 86% 29.89 in 10.0 mi SSW 10.4 mph - N/A   Scattered Clouds
9:31 AM 23.0 °F 11.7 °F 17.6 °F 80% 29.89 in 10.0 mi SSW 11.5 mph - N/A   Clear
9:51 AM 23.0 °F 13.1 °F 19.4 °F 86% 29.89 in 10.0 mi SSW 9.2 mph - N/A   Clear
10:11 AM 24.8 °F 14.6 °F 19.4 °F 80% 29.88 in 10.0 mi SSW 10.4 mph - N/A   Clear
10:31 AM 26.6 °F 17.5 °F 21.2 °F 80% 29.88 in 10.0 mi SW 9.2 mph - N/A   Clear
10:51 AM 28.4 °F 18.5 °F 21.2 °F 74% 29.88 in 10.0 mi SW 11.5 mph - N/A   Clear
11:10 AM 28.4 °F 18.0 °F 21.2 °F 74% 29.88 in 10.0 mi SW 12.7 mph - N/A   Clear
11:31 AM 28.4 °F 18.5 °F 21.2 °F 74% 29.87 in 10.0 mi SW 11.5 mph - N/A   Clear
11:51 AM 30.2 °F 20.8 °F 23.0 °F 75% 29.86 in 10.0 mi SW 11.5 mph - N/A   Clear
12:10 PM 30.2 °F 20.8 °F 23.0 °F 75% 29.85 in 10.0 mi SW 11.5 mph - N/A   Clear
12:31 PM 30.2 °F 20.2 °F 23.0 °F 75% 29.84 in 10.0 mi WSW 12.7 mph - N/A   Clear
12:51 PM 30.2 °F 21.3 °F 21.2 °F 69% 29.83 in 10.0 mi WSW 10.4 mph - N/A   Clear
1:10 PM 30.2 °F 20.8 °F 23.0 °F 75% 29.83 in 10.0 mi WSW 11.5 mph - N/A   Clear
1:31 PM 30.2 °F 21.3 °F 23.0 °F 75% 29.83 in 10.0 mi WSW 10.4 mph - N/A   Clear
1:50 PM 30.2 °F 21.3 °F 23.0 °F 75% 29.84 in 10.0 mi WSW 10.4 mph - N/A   Clear
2:10 PM 30.2 °F 21.9 °F 23.0 °F 75% 29.84 in 10.0 mi WSW 9.2 mph - N/A   Clear
2:31 PM 32.0 °F 23.0 °F 23.0 °F 69% 29.84 in 10.0 mi West 11.5 mph - N/A   Clear
2:50 PM 32.0 °F 23.6 °F 23.0 °F 69% 29.84 in 10.0 mi West 10.4 mph - N/A   Clear
3:11 PM 30.2 °F 20.2 °F 23.0 °F 75% 29.84 in 10.0 mi West 12.7 mph - N/A   Clear
3:31 PM 30.2 °F 20.8 °F 23.0 °F 75% 29.85 in 10.0 mi West 11.5 mph - N/A   Clear
3:50 PM 30.2 °F 21.3 °F 23.0 °F 75% 29.85 in 10.0 mi West 10.4 mph - N/A   Clear
4:11 PM 30.2 °F 21.3 °F 23.0 °F 75% 29.84 in 10.0 mi West 10.4 mph - N/A   Clear
4:30 PM 30.2 °F 21.9 °F 23.0 °F 75% 29.84 in 10.0 mi West 9.2 mph - N/A   Clear
4:50 PM 28.4 °F 20.4 °F 21.2 °F 74% 29.84 in 10.0 mi West 8.1 mph - N/A   Clear
5:11 PM 28.4 °F 22.2 °F 21.2 °F 74% 29.84 in 10.0 mi West 5.8 mph - N/A   Clear
5:30 PM 26.6 °F 18.2 °F 19.4 °F 74% 29.84 in 10.0 mi West 8.1 mph - N/A   Clear
5:51 PM 21.2 °F 13.6 °F 17.6 °F 86% 29.84 in 10.0 mi WSW 5.8 mph - N/A   Clear
6:11 PM 23.0 °F 18.4 °F 17.6 °F 80% 29.84 in 10.0 mi WSW 3.5 mph - N/A   Clear
6:31 PM 21.2 °F 13.6 °F 15.8 °F 80% 29.85 in 10.0 mi WSW 5.8 mph - N/A   Clear
6:51 PM 21.2 °F 13.6 °F 17.6 °F 86% 29.84 in 10.0 mi West 5.8 mph - N/A   Clear
7:11 PM 17.6 °F 10.7 °F 14.0 °F 86% 29.85 in 10.0 mi WSW 4.6 mph - N/A   Clear
7:31 PM 19.4 °F 11.5 °F 14.0 °F 80% 29.84 in 10.0 mi WSW 5.8 mph - N/A   Clear
7:51 PM 21.2 °F 12.6 °F 17.6 °F 86% 29.84 in 10.0 mi WSW 6.9 mph - N/A   Clear
8:11 PM 21.2 °F 12.6 °F 17.6 °F 86% 29.84 in 10.0 mi WSW 6.9 mph - N/A   Clear
8:31 PM 19.4 °F 11.5 °F 14.0 °F 80% 29.84 in 10.0 mi WSW 5.8 mph - N/A   Clear
8:51 PM 17.6 °F 10.7 °F 14.0 °F 86% 29.84 in 10.0 mi West 4.6 mph - N/A   Clear
9:11 PM 17.6 °F 8.2 °F 14.0 °F 86% 29.84 in 10.0 mi West 6.9 mph - N/A   Clear
9:31 PM 15.8 °F 10.2 °F 12.2 °F 86% 29.84 in 10.0 mi WSW 3.5 mph - N/A   Clear
9:51 PM 15.8 °F 8.6 °F 12.2 °F 86% 29.83 in 10.0 mi West 4.6 mph - N/A   Clear
10:11 PM 15.8 °F 6.1 °F 12.2 °F 86% 29.83 in 10.0 mi West 6.9 mph - N/A   Clear
10:31 PM 15.8 °F 6.1 °F 12.2 °F 86% 29.83 in 10.0 mi West 6.9 mph - N/A   Scattered Clouds
10:51 PM 17.6 °F 8.2 °F 14.0 °F 86% 29.82 in 10.0 mi West 6.9 mph - N/A   Scattered Clouds
11:11 PM 17.6 °F 5.7 °F 14.0 °F 86% 29.81 in 10.0 mi West 10.4 mph - N/A   Scattered Clouds
11:31 PM 15.8 °F 5.1 °F 12.2 °F 86% 29.81 in 10.0 mi West 8.1 mph - N/A   Scattered Clouds
11:51 PM 17.6 °F 7.3 °F 14.0 °F 86% 29.81 in 10.0 mi West 8.1 mph - N/A   Clear